GPS BIII-4 (PRN 14)

Last updated on Wed Jun 24 2026 00:03:27 GMT+0000 (Coordinated Universal Time)

1 46826U 20078A 26173.75144030 .00000052 00000+0 00000+0 0 9991 2 46826 53.9791 210.5526 0073700 207.3839 152.5141 2.00565024 41628
UTC large
Height (km)
Speed (km/s)
/
Latitude / Longitude
Inclination (degrees)
Orbital Period (minutes)
Azimuth
Elevation
Range (km)
Doppler Factor

Next 0 passes for location: London (51.5072 / 0.1276)

No passes found over London.
GPS BIII-4 (PRN 14)